Torna al catalogo

STARLINK-35388

AttivoComunicazioniVLEO
NORAD 66466·PAYLOAD·🇺🇸 United States

Lanciato Nov 15, 2025 da Cape Canaveral Space Force Station

Loading…

Prossimi Passaggi (prossime 24 ore)

TLE

AggiornatoSource: CelesTrak SupGP

Epoca: Sep 14, 2026, 21:24 UTC

1 66466C 25262L   26257.89215278 -.00015053  00000+0 -54553-3 0  2576
2 66466  43.0011 307.4350 0001470 267.6399 142.5500 15.27566802    15

Traccia STARLINK-35388 in tempo reale con AllMySat

Download on the App Store